This demonstration page uses our WeatherBlox Daily Observations layout. Learn more.

Hourly Observations for May 25, 2015

Temp ( °F °C ) Dew Point ( °F °C ) Humidity (%) Winds ( mph kmh ) Pressure ( in mb ) Visibility ( mi km ) Precip ( " mm )
12:15 am 00:15 Cloudy with Nearby Thunderstorms 59 15.1 58 14.2 94 94 SSW 5 7 29.74 1007 10 16.0934 0 0
12:35 am 00:35 Cloudy 57 13.8 52 11.3 85 85 WNW 7 11 29.74 1007 10 16.0934 0 0
12:55 am 00:55 Cloudy 56 13.5 52 11.3 87 87 WNW 9 15 29.74 1007 10 16.0934 0 0
1:15 am 01:15 Cloudy 56 13.3 53 11.5 89 89 Calm 29.77 1008 10 16.0934 0 0
1:35 am 01:35 Cloudy with Nearby Thunderstorms 56 13.3 53 11.6 90 90 WSW 13 20 29.8 1009 10 16.0934 0.01 0.254
1:55 am 01:55 Cloudy 55 12.7 52 11.1 90 90 WSW 9 15 29.77 1008 10 16.0934 0.03 0.762
2:15 am 02:15 Partly Cloudy 54 12.4 52 10.9 91 91 W 7 11 29.77 1008 10 16.0934 0 0
2:35 am 02:35 Partly Cloudy 54 12.2 52 10.9 92 92 NW 3 6 29.74 1007 10 16.0934 0 0
2:55 am 02:55 Partly Cloudy 54 12 51 10.6 91 91 NNW 5 7 29.74 1007 10 16.0934 0 0
3:15 am 03:15 Partly Cloudy 54 12.1 51 10.7 91 91 NNW 6 9 29.71 1006 10 16.0934 0 0
3:35 am 03:35 Partly Cloudy 54 12 51 10.8 92 92 S 6 9 29.77 1008 10 16.0934 0 0
3:55 am 03:55 Clear 53 11.5 51 10.5 94 94 W 5 7 29.74 1007 10 16.0934 0 0
4:15 am 04:15 Clear 53 11.5 51 10.6 94 94 Calm 29.77 1008 10 16.0934 0 0
4:35 am 04:35 Clear 52 11.1 50 10.2 94 94 S 3 6 29.77 1008 10 16.0934 0 0
4:55 am 04:55 Clear 52 11.1 50 10.2 94 94 SW 5 7 29.77 1008 10 16.0934 0 0
5:15 am 05:15 Clear 52 11.3 51 10.5 95 95 SW 7 11 29.77 1008 10 16.0934 0 0
5:35 am 05:35 Clear 53 11.5 51 10.3 92 92 SW 7 11 29.77 1008 10 16.0934 0 0
5:55 am 05:55 Clear 53 11.5 50 10.2 92 92 W 9 15 29.77 1008 10 16.0934 0 0
6:15 am 06:15 Sunny 53 11.6 50 10.1 91 91 WSW 9 15 29.77 1008 10 16.0934 0 0
6:35 am 06:35 Sunny 53 11.5 50 10 91 91 WSW 7 11 29.77 1008 10 16.0934 0 0
6:55 am 06:55 Sunny 53 11.5 50 10 91 91 Calm 29.77 1008 10 16.0934 0 0
7:15 am 07:15 Sunny 52 11.2 50 9.9 92 92 SSW 3 6 29.77 1008 10 16.0934 0 0
7:35 am 07:35 Sunny 53 11.6 51 10.4 92 92 Calm 29.77 1008 10 16.0934 0 0
7:55 am 07:55 Sunny 56 13.2 53 11.4 89 89 Calm 29.77 1008 10 16.0934 0 0
8:15 am 08:15 Sunny 58 14.2 53 11.5 84 84 SSW 3 6 29.74 1007 10 16.0934 0 0
8:35 am 08:35 Sunny 59 14.9 53 11.8 82 82 Calm 29.74 1007 10 16.0934 0 0
8:55 am 08:55 Sunny 60 15.6 54 12.1 80 80 WSW 3 6 29.74 1007 10 16.0934 0 0
9:15 am 09:15 Sunny 61 16 53 11.5 75 75 WSW 3 6 29.74 1007 10 16.0934 0 0
9:35 am 09:35 Sunny 62 16.6 54 12 74 74 SSW 5 7 29.74 1007 10 16.0934 0 0
9:55 am 09:55 Sunny 63 17.2 54 12 72 72 SSW 3 6 29.74 1007 10 16.0934 0 0
10:15 am 10:15 Sunny 64 17.6 53 11.8 69 69 WSW 6 9 29.71 1006 10 16.0934 0 0
10:35 am 10:35 Partly Cloudy 65 18.4 55 12.5 69 69 SW 8 13 29.71 1006 10 16.0934 0 0
10:55 am 10:55 Partly Cloudy 65 18.2 52 11 63 63 SSW 9 15 29.71 1006 10 16.0934 0 0
11:15 am 11:15 Partly Cloudy 66 19 52 11.2 61 61 SSW 5 7 29.71 1006 10 16.0934 0 0
11:35 am 11:35 Partly Cloudy 65 18.4 52 11.2 63 63 SW 10 17 29.71 1006 10 16.0934 0 0
11:55 am 11:55 Partly Cloudy 67 19.3 54 12.2 64 64 SSW 9 15 29.71 1006 10 16.0934 0 0
12:15 pm 12:15 Mostly Cloudy 65 18.6 53 11.8 65 65 SSW 7 11 29.71 1006 10 16.0934 0 0
12:35 pm 12:35 Mostly Cloudy 67 19.3 53 11.7 62 62 S 9 15 29.71 1006 10 16.0934 0 0
12:55 pm 12:55 Mostly Cloudy 68 20 53 11.7 59 59 SSE 13 20 29.71 1006 10 16.0934 0 0
1:15 pm 13:15 Mostly Cloudy 68 20 54 12 60 60 S 14 22 29.74 1007 10 16.0934 0 0
1:35 pm 13:35 Mostly Cloudy 69 20.8 53 11.8 57 57 SSW 12 19 29.68 1005 10 16.0934 0 0
1:55 pm 13:55 Partly Cloudy 70 21.1 53 11.8 55 55 SSW 13 20 29.68 1005 10 16.0934 0 0
2:15 pm 14:15 Mostly Cloudy 70 21.2 54 12.4 57 57 SSW 13 20 29.68 1005 10 16.0934 0 0
2:35 pm 14:35 Mostly Cloudy 70 21.3 54 12.4 57 57 SW 8 13 29.68 1005 10 16.0934 0 0
2:55 pm 14:55 Partly Cloudy 72 22.2 54 12.1 53 53 WSW 13 20 29.68 1005 10 16.0934 0 0
3:15 pm 15:15 Partly Cloudy 72 22.2 54 12.3 54 54 WSW 10 17 29.68 1005 10 16.0934 0 0
3:35 pm 15:35 Partly Cloudy 73 22.9 53 11.8 50 50 WSW 9 15 29.68 1005 10 16.0934 0 0
3:55 pm 15:55 Partly Cloudy 73 22.8 53 11.4 49 49 WSW 9 15 29.68 1005 10 16.0934 0 0
4:15 pm 16:15 Partly Cloudy 74 23.2 53 11.7 48 48 WSW 10 17 29.68 1005 10 16.0934 0 0
4:35 pm 16:35 Partly Cloudy 75 23.8 51 10.3 43 43 WSW 10 17 29.68 1005 10 16.0934 0 0
4:55 pm 16:55 Sunny 75 23.7 50 9.9 42 42 WSW 15 24 29.68 1005 10 16.0934 0 0
5:15 pm 17:15 Sunny 74 23.6 49 9.7 41 41 SW 8 13 29.65 1004 10 16.0934 0 0
5:35 pm 17:35 Sunny 75 23.8 49 9.5 40 40 W 16 26 29.65 1004 10 16.0934 0 0
5:55 pm 17:55 Partly Cloudy 74 23.1 49 9.4 42 42 W 10 17 29.65 1004 10 16.0934 0 0
6:15 pm 18:15 Partly Cloudy 74 23.6 48 9 40 40 W 15 24 29.65 1004 10 16.0934 0 0
6:35 pm 18:35 Partly Cloudy 75 23.7 47 8.2 37 37 W 16 26 29.68 1005 10 16.0934 0 0
6:55 pm 18:55 Sunny 74 23.5 46 8 37 37 WSW 9 15 29.68 1005 10 16.0934 0 0
7:15 pm 19:15 Sunny 73 22.8 45 7.4 37 37 W 12 19 29.68 1005 10 16.0934 0 0
7:35 pm 19:35 Sunny 72 22.2 46 7.8 40 40 WSW 10 17 29.68 1005 10 16.0934 0 0
7:55 pm 19:55 Partly Cloudy 72 22.3 47 8.6 42 42 W 8 13 29.68 1005 10 16.0934 0 0
8:15 pm 20:15 Partly Cloudy 71 21.6 48 8.7 44 44 W 9 15 29.68 1005 10 16.0934 0 0
8:35 pm 20:35 Mostly Cloudy 70 21.2 49 9.4 47 47 W 9 15 29.68 1005 10 16.0934 0 0
8:55 pm 20:55 Partly Cloudy 68 19.9 50 9.9 53 53 W 9 15 29.71 1006 10 16.0934 0 0
9:15 pm 21:15 Partly Cloudy 66 18.8 50 9.9 56 56 W 9 15 29.71 1006 10 16.0934 0 0
9:35 pm 21:35 Clear 65 18.1 49 9.6 58 58 W 15 24 29.71 1006 10 16.0934 0 0
9:55 pm 21:55 Clear 63 17.4 49 9.5 60 60 W 12 19 29.74 1007 10 16.0934 0 0
10:15 pm 22:15 Clear 63 17 49 9.6 62 62 W 13 20 29.74 1007 10 16.0934 0 0
10:35 pm 22:35 Clear 62 16.5 49 9.3 63 63 W 9 15 29.74 1007 10 16.0934 0 0
10:55 pm 22:55 Clear 61 16.1 49 9.5 65 65 W 8 13 29.77 1008 10 16.0934 0 0
11:15 pm 23:15 Clear 60 15.8 49 9.5 66 66 W 8 13 29.77 1008 10 16.0934 0 0
11:35 pm 23:35 Clear 59 15.1 49 9.7 70 70 W 7 11 29.77 1008 10 16.0934 0 0
11:55 pm 23:55 Clear 58 14.5 50 10 75 75 W 10 17 29.74 1007 10 16.0934 0 0

Powered by AerisWeather